Retour au catalogue

SL-12 R/B(2)

LostMEO
NORAD 23739·ROCKET BODY·🇷🇺 Russia

Lancé Dec 14, 1995 depuis Baikonur Cosmodrome

Loading…

Prochains Passages (prochaines 24 heures)

TLE

PériméSource: Space-Track

Époque: Aug 6, 2026, 02:13 UTC

1 23739U 95068F   26218.09252670  .00000106  00000-0  00000+0 0  9998
2 23739  65.4775 200.0457 0012552 195.9624 340.8446  2.13375454238757

Suivez SL-12 R/B(2) en temps réel avec AllMySat

Download on the App Store